Prescott, AZ

10:35 AM MST on December 05, 2019 (GMT -0700)
Love

Weather History for KPRC - November, 2019

Change the Weather History Date:

Sunday, November 17, 2019

  Actual Average Record
Temperature  
Mean Temperature 52 °F 46 °F  
Max Temperature 72 °F 60 °F 75 °F (1981)
Min Temperature 33 °F 31 °F 6 °F (1964)
Degree Days  
Heating Degree Days 12    
Month to date heating degree days 194  
Since 1 July heating degree days 513  
Cooling Degree Days 0    
Month to date cooling degree days 0  
Year to date cooling degree days 1130  
Growing Degree Days 2 (Base 50)    
Moisture  
Dew Point 18 °F    
Average Humidity 32    
Maximum Humidity 61    
Minimum Humidity 9    
Precipitation  
Precipitation 0.00 in 0.03 in 0.78 in (1953)
Month to date precipitation 0.26 0.49  
Year to date precipitation 10.55 12.58  
Sea Level Pressure  
Sea Level Pressure 30.08 in    
Wind  
Wind Speed 5 mph ()    
Max Wind Speed 10 mph    
Max Gust Speed 12 mph    
Visibility 10.0 miles    
Events      
T = Trace of Precipitation, MM = Missing Value Source: Averaged Metar Reports

Daily Weather History Graph

Daily Weather History Graph

Search for Another Location

Airport or City:

Astronomy

Nov. 17, 2019 Rise Set
Actual Time 7:05 AM MST 5:23 PM MST
Civil Twilight 6:38 AM MST 5:50 PM MST
Nautical Twilight 6:07 AM MST 6:21 PM MST
Astronomical Twilight 5:37 AM MST 6:51 PM MST
Moon 10:07 PM MST (11/17) 11:50 AM MST (11/17)
Length of Visible Light 11h 12m
Length of Day
10h 18m
Waning Gibbous, 73% of the Moon is Illuminated
Nov 17
Waning Gibbous
Nov 19
Last Quarter
Nov 26
New
Dec 3
First Quarter
Dec 11
Full

Hourly Weather History & Observations

Time (MST) Temp. Windchill Dew Point Humidity Pressure Visibility Wind Dir Wind Speed Gust Speed Precip Events Conditions
12:53 AM 42.1 °F 38.4 °F 19.9 °F 41% 30.07 in 10.0 mi South 5.8 mph - N/A   Clear
1:53 AM 39.0 °F 33.4 °F 19.9 °F 46% 30.06 in 10.0 mi South 8.1 mph - N/A   Clear
2:53 AM 37.0 °F 31.6 °F 21.0 °F 52% 30.09 in 10.0 mi South 6.9 mph - N/A   Clear
3:53 AM 37.0 °F 31.0 °F 21.0 °F 52% 30.09 in 10.0 mi South 8.1 mph - N/A   Clear
4:53 AM 36.0 °F 31.1 °F 21.0 °F 55% 30.09 in 10.0 mi SSW 5.8 mph - N/A   Clear
5:53 AM 34.0 °F 28.8 °F 21.0 °F 59% 30.13 in 10.0 mi South 5.8 mph - N/A   Clear
6:53 AM 35.1 °F 28.6 °F 19.9 °F 54% 30.14 in 10.0 mi SSW 8.1 mph - N/A   Clear
9:53 AM 54.0 °F - 19.9 °F 26% 30.15 in 10.0 mi Calm Calm - N/A   Clear
10:53 AM 59.0 °F - 17.1 °F 20% 30.12 in 10.0 mi ENE 3.5 mph - N/A   Clear
11:53 AM 63.0 °F - 18.0 °F 18% 30.08 in 10.0 mi Variable 3.5 mph - N/A   Clear
12:53 PM 66.9 °F - 15.1 °F 14% 30.04 in 10.0 mi North 3.5 mph - N/A   Clear
1:53 PM 70.0 °F - 14.0 °F 12% 30.02 in 10.0 mi ESE 6.9 mph - N/A   Clear
2:53 PM 72.0 °F - 10.9 °F 10% 30.01 in 10.0 mi ESE 5.8 mph - N/A   Clear
3:53 PM 71.1 °F - 10.0 °F 9% 30.02 in 10.0 mi ESE 6.9 mph - N/A   Clear
4:53 PM 69.1 °F - 12.0 °F 11% 30.03 in 10.0 mi SSE 4.6 mph - N/A   Clear
5:53 PM 60.1 °F - 17.1 °F 19% 30.08 in 10.0 mi SSW 5.8 mph - N/A   Clear
6:53 PM 57.0 °F - 19.0 °F 23% 30.10 in 10.0 mi South 8.1 mph - N/A   Clear
7:53 PM 51.1 °F - 21.0 °F 31% 30.12 in 10.0 mi North - - N/A   Clear
8:53 PM 50.0 °F - 19.0 °F 29% 30.10 in 10.0 mi South 4.6 mph - N/A   Clear
9:53 PM 45.0 °F 41.8 °F 23.0 °F 42% 30.08 in 10.0 mi South 5.8 mph - N/A   Clear
10:53 PM 46.0 °F 42.5 °F 18.0 °F 33% 30.06 in 10.0 mi SSW 6.9 mph - N/A   Clear
11:53 PM 42.1 °F 38.4 °F 19.9 °F 41% 30.06 in 10.0 mi SSW 5.8 mph - N/A   Clear